This is the latest recevied weather packets stored in our database for station/object KC1OEK-13. If no packets are shown the sender has not sent any weather packets the latest 10 day(s).
| Time | Temp. | Humidity | Pressure | Rain* | Wind** | Luminosity | Snow |
|---|---|---|---|---|---|---|---|
| 1777923150 | 21.67° C | 36% | 1010.2 hPa | 0 mm | - | 581 W/m² | - |
| 1777922848 | 21.67° C | 33% | 1010.3 hPa | 0 mm | - | 592 W/m² | - |
| 1777922546 | 21.11° C | 34% | 1010.4 hPa | 0 mm | - | 601 W/m² | - |
| 1777922244 | 21.67° C | 34% | 1010.3 hPa | 0 mm | - | 615 W/m² | - |
| 1777921941 | 21.67° C | 33% | 1010.5 hPa | 0 mm | - | 630 W/m² | - |
| 1777921636 | 21.11° C | 33% | 1010.4 hPa | 0 mm | - | 639 W/m² | - |
| 1777921333 | 20.56° C | 34% | 1010.4 hPa | 0 mm | - | 646 W/m² | - |
| 1777921029 | 20.56° C | 34% | 1010.4 hPa | 0 mm | - | 662 W/m² | - |
| 1777920726 | 21.67° C | 34% | 1010.8 hPa | 0 mm | - | 695 W/m² | - |
| 1777920422 | 21.67° C | 33% | 1010.6 hPa | 0 mm | - | 668 W/m² | - |
| 1777920117 | 21.11° C | 34% | 1010.6 hPa | 0 mm | - | 681 W/m² | - |
| 1777919814 | 20.56° C | 35% | 1010.8 hPa | 0 mm | - | 712 W/m² | - |
| 1777919511 | 20° C | 35% | 1010.9 hPa | 0 mm | - | 733 W/m² | - |
| 1777919209 | 20.56° C | 36% | 1010.9 hPa | 0 mm | - | 715 W/m² | - |
| 1777918906 | 20.56° C | 34% | 1010.9 hPa | 0 mm | - | 717 W/m² | - |
| 1777918604 | 20° C | 37% | 1011 hPa | 0 mm | - | 768 W/m² | - |
| 1777918301 | 20.56° C | 35% | 1011 hPa | 0 mm | - | 337 W/m² | - |
| 1777918000 | 20.56° C | 34% | 1011.1 hPa | 0 mm | - | 159 W/m² | - |
| 1777917698 | 20.56° C | 38% | 1011.1 hPa | 0 mm | - | 735 W/m² | - |
| 1777917395 | 20° C | 34% | 1011.2 hPa | 0 mm | - | 777 W/m² | - |
| 1777917092 | 19.44° C | 35% | 1011.1 hPa | 0 mm | - | 676 W/m² | - |
| 1777916790 | 20° C | 36% | 1011.4 hPa | 0 mm | - | 188 W/m² | - |
| 1777916486 | 20° C | 34% | 1011.4 hPa | 0 mm | - | 246 W/m² | - |
| 1777916184 | 19.44° C | 36% | 1011.3 hPa | 0 mm | - | 852 W/m² | - |
| 1777915881 | 20° C | 34% | 1011.4 hPa | 0 mm | - | 197 W/m² | - |
* Rain latest hour (hover to see other rain measurements)
** Current wind speed in m/s (hover to see current wind gust speed)